Flag for Germany Weather past 2 weeks in Vreden, North Rhine-Westphalia, Germany

Now
49 °F

Overcast.


Feels Like: 46 °F
Forecast: 39 / 61 °F
Wind: 6 mph from North

Location: Twenthe


UV Index: 3 (Moderate)

Visibility: 17 mi


Pressure: 29.96 "Hg

Humidity: 60%

Dew point: 35 °F

Location of VredenLocation

Historic Weather in Vreden

°F

Vreden temperature yesterday

Maximum temperature yesterday: 62 °F (at 5:00 PM)
Minimum temperature yesterday: 37 °F (at 1:00 AM)
Average temperature yesterday: 51 °F

Past Weeks' High & Low Weather Summary

 TemperatureHumidityPressure
High72 °F (Apr 3, 4:00 PM)99% (Apr 6, 2:00 AM)30.47 "Hg (Apr 6, 2:00 AM)
Low28 °F (Apr 16, 7:00 AM)31% (Apr 16, 4:00 PM)29.60 "Hg (Apr 3, 6:00 PM)
Average52 °F73%30.05 "Hg
* Reported Apr 3 12:00 Noon — Apr 18 12:00 Noon, Vreden, Weather by CustomWeather, © 2014

Note: Actual official high and low records may vary slightly from our data, if they occured in-between our weather recording intervals... More about our weather records

Advertising

Historic Weather Conditions — Data for Previous 24 hours

 ConditionsComfort  
Time TempWeatherWind HumidityBarometerVisibility
12:00 PM
Apr 18
49 °FOvercast.6 mph60%29.96 "Hg17 mi
11:00 AM47 °FOvercast.7 mph63%29.96 "Hg16 mi
10:00 AM46 °FRain showers. Overcast.6 mph75%29.94 "Hg10 mi
9:00 AM46 °FOvercast.6 mph77%29.93 "Hg12 mi
8:00 AM44 °FRain showers. Scattered clouds.6 mph86%29.93 "Hg11 mi
7:00 AM41 °FPassing clouds.3 mph88%29.92 "Hg12 mi
6:00 AM41 °FPassing clouds.2 mph87%29.91 "Hg12 mi
5:00 AM44 °FOvercast.3 mph84%29.90 "Hg11 mi
4:00 AM43 °FClear.5 mph86%29.90 "Hg11 mi
3:00 AM45 °FClear.5 mph87%29.89 "Hg10 mi
2:00 AM46 °FPassing clouds.5 mph92%29.90 "Hg8 mi
6:00 PM
Apr 17
61 °FOvercast.8 mph35%29.96 "Hg19 mi
5:00 PM62 °FOvercast.9 mph36%29.98 "Hg19 mi
4:00 PM61 °FOvercast.9 mph34%30.01 "Hg22 mi
3:00 PM60 °FScattered clouds.9 mph36%30.05 "Hg16 mi
2:00 PM60 °FPartly sunny.9 mph37%30.09 "Hg16 mi
1:00 PM58 °FScattered clouds.8 mph43%30.14 "Hg16 mi
Weather by CustomWeather, © 2014

See weather overview